Find OneWeb SL0066

NORAD ID: 45424 Int'l Des: 2020-020 Owner: ONEWEB Country: UK Constellation: oneweb operational
LEOCIRCULARPOLARONEWEB_TYPE

实时位置

正在加载3D地球...

关于 OneWeb SL0066

正在加载描述...

即将过境

Passes for default location (London). Set your location on the main map for personalized predictions.

高度历史

Loading altitude history...

两行轨道根数

1 45424U 20020A 26125.49680875 .00000526 00000-0 14493-2 0 9992
2 45424 87.8926 29.5596 0001980 77.4397 282.6952 13.11417075297082
Epoch: May 5, 2026 • Age: 7 hours

当前状态

高度 1224.8 km
速度 7.24 km/s
星下点 -18.23°S, 122.19°W
发射日期 Mar 21, 2020
运行时间 6.1 years
类型 internet

技术详情

分类 Payload
质量 148.00 kg
干质量 140.00 kg
总质量 148.00 kg
长度 1.30 m
直径 1.00 m
跨度 5.00 m
形状 Trapezoid+2 pan
制造商 ONEWUS
平台类型 ARROW
阶段状态 In Orbit
所有者/国家 ONEWEB/UK

Most Searched